Tunica, MS

9:41 PM CST on November 20, 2017 (GMT -0600)
Tunica

Weather History for KUTA - February, 2014

Change the Weather History Date:

Tuesday, February 11, 2014

  Actual Average (KAWM) Record (KAWM)
Temperature  
Mean Temperature 26 °F -  
Max Temperature 32 °F 53 °F 77 °F (2017)
Min Temperature 21 °F 32 °F 6 °F (1981)
Degree Days  
Heating Degree Days 38    
Moisture  
Dew Point 20 °F    
Average Humidity 76    
Maximum Humidity 93    
Minimum Humidity 60    
Precipitation  
Precipitation 0.00 in - - ()
Sea Level Pressure  
Sea Level Pressure 30.32 in    
Wind  
Wind Speed 15 mph (North)    
Max Wind Speed 20 mph    
Max Gust Speed 23 mph    
Visibility 10 miles    
Events Snow    
Averages and records for this station are not official NWS values.
T = Trace of Precipitation, MM = Missing Value Source: NWS Daily Summary

Daily Weather History Graph

Daily Weather History Graph

Search for Another Location

Airport or City:

Trip Planner

Search our weather history database for the weather conditions in past years. The results will help you decide how hot, cold, wet, or windy it might be!

Date:

Astronomy

Feb. 11, 2014 Rise Set
Actual Time 6:50 AM CST 5:40 PM CST
Civil Twilight 6:25 AM CST 6:06 PM CST
Nautical Twilight 5:55 AM CST 6:36 PM CST
Astronomical Twilight 5:25 AM CST 7:05 PM CST
Moon 3:04 PM CST (2/11) 4:24 AM CST (2/11)
Length of Visible Light 11h 41m
Length of Day
10h 49m
Waxing Gibbous, 91% of the Moon is Illuminated
Feb 11
Waxing Gibbous
Feb 14
Full
Feb 22
Last Quarter
Mar 1
New
Mar 8
First Quarter

Hourly Weather History & Observations

Time (CST) Temp. Windchill Dew Point Humidity Pressure Visibility Wind Dir Wind Speed Gust Speed Precip Events Conditions
12:15 AM 26.6 °F 14.3 °F 23.0 °F 86% 30.34 in 1.2 mi North 16.1 mph - N/A Snow Light Snow
12:35 AM 26.6 °F 14.3 °F 23.0 °F 86% 30.33 in 1.8 mi NNE 16.1 mph 19.6 mph N/A Snow Light Snow
12:55 AM 26.6 °F 13.8 °F 21.2 °F 80% 30.32 in 7.0 mi NNE 17.3 mph - N/A Snow Light Snow
1:15 AM 26.6 °F 13.8 °F 19.4 °F 74% 30.33 in 10.0 mi North 17.3 mph - N/A   Overcast
1:35 AM 26.6 °F 13.8 °F 19.4 °F 74% 30.32 in 10.0 mi North 17.3 mph - N/A   Mostly Cloudy
1:55 AM 26.6 °F 13.8 °F 21.2 °F 80% 30.33 in 10.0 mi North 17.3 mph - N/A   Scattered Clouds
2:15 AM 26.6 °F 13.8 °F 21.2 °F 80% 30.33 in 10.0 mi North 17.3 mph 23.0 mph N/A   Mostly Cloudy
2:35 AM 24.8 °F 13.4 °F 21.2 °F 86% 30.34 in 7.0 mi North 12.7 mph 17.3 mph N/A   Mostly Cloudy
2:55 AM 23.0 °F 10.6 °F 21.2 °F 93% 30.33 in 5.0 mi North 13.8 mph - N/A Snow Light Snow
3:15 AM 23.0 °F 9.6 °F 19.4 °F 86% 30.33 in 7.0 mi North 16.1 mph - N/A Snow Light Snow
3:35 AM 23.0 °F 10.1 °F 19.4 °F 86% 30.33 in 4.0 mi North 15.0 mph 20.7 mph N/A Snow Light Snow
3:55 AM 23.0 °F 11.1 °F 19.4 °F 86% 30.33 in 10.0 mi North 12.7 mph - N/A Snow Light Snow
4:15 AM 23.0 °F 9.6 °F 17.6 °F 80% 30.34 in 10.0 mi North 16.1 mph - N/A Snow Light Snow
4:35 AM 23.0 °F 10.6 °F 17.6 °F 80% 30.34 in 10.0 mi North 13.8 mph - N/A   Mostly Cloudy
4:55 AM 23.0 °F 9.2 °F 17.6 °F 80% 30.33 in 10.0 mi North 17.3 mph - N/A   Overcast
5:15 AM 23.0 °F 10.1 °F 17.6 °F 80% 30.34 in 10.0 mi North 15.0 mph 18.4 mph N/A   Mostly Cloudy
5:35 AM 23.0 °F 10.6 °F 17.6 °F 80% 30.34 in 10.0 mi North 13.8 mph - N/A   Scattered Clouds
5:55 AM 21.2 °F 6.8 °F 17.6 °F 86% 30.35 in 10.0 mi North 17.3 mph - N/A   Scattered Clouds
6:15 AM 21.2 °F 6.8 °F 17.6 °F 86% 30.36 in 10.0 mi North 17.3 mph - N/A   Mostly Cloudy
6:35 AM 21.2 °F 6.0 °F 15.8 °F 80% 30.37 in 10.0 mi North 19.6 mph - N/A   Scattered Clouds
6:55 AM 21.2 °F 7.3 °F 15.8 °F 80% 30.38 in 10.0 mi North 16.1 mph 21.9 mph N/A   Mostly Cloudy
7:15 AM 21.2 °F 8.3 °F 15.8 °F 80% 30.38 in 10.0 mi North 13.8 mph - N/A   Mostly Cloudy
7:35 AM 21.2 °F 9.5 °F 15.8 °F 80% 30.38 in 10.0 mi North 11.5 mph - N/A   Scattered Clouds
7:55 AM 21.2 °F 6.8 °F 15.8 °F 80% 30.39 in 10.0 mi North 17.3 mph 20.7 mph N/A   Scattered Clouds
8:15 AM 21.2 °F 9.5 °F 15.8 °F 80% 30.39 in 10.0 mi North 11.5 mph - N/A   Scattered Clouds
8:35 AM 21.2 °F 8.3 °F 15.8 °F 80% 30.40 in 10.0 mi North 13.8 mph - N/A   Scattered Clouds
8:55 AM 21.2 °F 7.8 °F 15.8 °F 80% 30.41 in 10.0 mi North 15.0 mph 20.7 mph N/A   Clear
9:15 AM 21.2 °F 8.3 °F 15.8 °F 80% 30.42 in 10.0 mi North 13.8 mph 20.7 mph N/A   Clear
9:35 AM 23.0 °F 10.1 °F 15.8 °F 74% 30.42 in 10.0 mi North 15.0 mph - N/A   Clear
9:55 AM 23.0 °F 10.1 °F 15.8 °F 74% 30.42 in 10.0 mi NNE 15.0 mph - N/A   Clear
10:15 AM 23.0 °F 10.1 °F 15.8 °F 74% 30.42 in 10.0 mi North 15.0 mph - N/A   Clear
10:35 AM 26.6 °F 15.2 °F 15.8 °F 64% 30.42 in 10.0 mi NNE 13.8 mph 19.6 mph N/A   Clear
10:55 AM 26.6 °F 14.7 °F 17.6 °F 69% 30.41 in 10.0 mi North 15.0 mph - N/A   Clear
11:15 AM 26.6 °F 15.2 °F 17.6 °F 69% 30.40 in 10.0 mi North 13.8 mph - N/A   Clear
11:35 AM 28.4 °F 16.2 °F 17.6 °F 64% 30.38 in 10.0 mi North 17.3 mph - N/A   Clear
11:55 AM 28.4 °F 16.6 °F 17.6 °F 64% 30.38 in 10.0 mi North 16.1 mph - N/A   Clear
12:15 PM 30.2 °F 18.5 °F 17.6 °F 60% 30.38 in 10.0 mi North 17.3 mph - N/A   Clear
12:35 PM 30.2 °F 18.9 °F 19.4 °F 64% 30.36 in 10.0 mi North 16.1 mph 21.9 mph N/A   Clear
12:55 PM 30.2 °F 19.3 °F 19.4 °F 64% 30.36 in 10.0 mi North 15.0 mph - N/A   Clear
1:15 PM 32.0 °F 22.1 °F 21.2 °F 64% 30.34 in 10.0 mi North 13.8 mph - N/A   Clear
1:35 PM 32.0 °F 22.1 °F 21.2 °F 64% 30.33 in 10.0 mi North 13.8 mph 18.4 mph N/A   Clear
1:55 PM 32.0 °F 21.6 °F 19.4 °F 60% 30.32 in 10.0 mi North 15.0 mph - N/A   Clear
2:15 PM 32.0 °F 21.6 °F 19.4 °F 60% 30.31 in 10.0 mi North 15.0 mph - N/A   Clear
2:35 PM 32.0 °F 22.1 °F 21.2 °F 64% 30.30 in 10.0 mi North 13.8 mph - N/A   Clear
2:55 PM 32.0 °F 20.8 °F 23.0 °F 69% 30.29 in 10.0 mi NNW 17.3 mph - N/A   Scattered Clouds
3:15 PM 32.0 °F 20.8 °F 23.0 °F 69% 30.29 in 10.0 mi NNW 17.3 mph - N/A   Scattered Clouds
3:35 PM 32.0 °F 20.8 °F 23.0 °F 69% 30.28 in 10.0 mi North 17.3 mph - N/A   Scattered Clouds
3:55 PM 30.2 °F 18.5 °F 23.0 °F 75% 30.27 in 10.0 mi North 17.3 mph - N/A   Clear
4:15 PM 30.2 °F 18.5 °F 23.0 °F 75% 30.26 in 10.0 mi North 17.3 mph - N/A   Clear
4:35 PM 30.2 °F 18.5 °F 23.0 °F 75% 30.25 in 10.0 mi North 17.3 mph - N/A   Clear
4:55 PM 28.4 °F 16.6 °F 23.0 °F 80% 30.25 in 10.0 mi North 16.1 mph 23.0 mph N/A   Clear
5:15 PM 28.4 °F 16.6 °F 23.0 °F 80% 30.25 in 10.0 mi North 16.1 mph 20.7 mph N/A   Clear
5:35 PM 28.4 °F 17.0 °F 23.0 °F 80% 30.25 in 10.0 mi North 15.0 mph - N/A   Clear
5:55 PM 28.4 °F 16.6 °F 23.0 °F 80% 30.26 in 10.0 mi North 16.1 mph - N/A   Clear
6:15 PM 28.4 °F 18.0 °F 23.0 °F 80% 30.26 in 10.0 mi North 12.7 mph - N/A   Clear
6:35 PM 28.4 °F 18.5 °F 23.0 °F 80% 30.27 in 10.0 mi North 11.5 mph - N/A   Clear
6:55 PM 28.4 °F 17.5 °F 23.0 °F 80% 30.28 in 10.0 mi North 13.8 mph - N/A   Clear
7:15 PM 28.4 °F 18.0 °F 23.0 °F 80% 30.28 in 10.0 mi North 12.7 mph - N/A   Clear
7:35 PM 30.2 °F 20.2 °F 21.2 °F 69% 30.28 in 10.0 mi North 12.7 mph - N/A   Scattered Clouds
7:55 PM 30.2 °F 21.3 °F 23.0 °F 75% 30.29 in 10.0 mi North 10.4 mph - N/A   Overcast
8:15 PM 28.4 °F 19.7 °F 23.0 °F 80% 30.29 in 10.0 mi North 9.2 mph - N/A   Overcast
8:35 PM 28.4 °F 19.7 °F 23.0 °F 80% 30.28 in 10.0 mi North 9.2 mph - N/A   Overcast
8:55 PM 28.4 °F 18.5 °F 23.0 °F 80% 30.30 in 10.0 mi North 11.5 mph - N/A   Overcast
9:15 PM 28.4 °F 19.7 °F 23.0 °F 80% 30.30 in 10.0 mi NNW 9.2 mph - N/A   Overcast
9:35 PM 28.4 °F 20.4 °F 23.0 °F 80% 30.29 in 10.0 mi North 8.1 mph - N/A   Overcast
9:55 PM 28.4 °F 17.5 °F 23.0 °F 80% 30.27 in 10.0 mi NNW 13.8 mph - N/A   Mostly Cloudy
10:15 PM 28.4 °F 18.0 °F 23.0 °F 80% 30.26 in 10.0 mi North 12.7 mph - N/A   Scattered Clouds
10:35 PM 28.4 °F 18.0 °F 23.0 °F 80% 30.24 in 10.0 mi North 12.7 mph - N/A   Scattered Clouds
10:55 PM 28.4 °F 18.0 °F 23.0 °F 80% 30.25 in 10.0 mi NNW 12.7 mph - N/A   Mostly Cloudy
11:15 PM 28.4 °F 18.5 °F 21.2 °F 74% 30.25 in 10.0 mi NNW 11.5 mph - N/A   Overcast
11:35 PM 28.4 °F 18.5 °F 21.2 °F 74% 30.26 in 10.0 mi North 11.5 mph - N/A   Overcast
11:55 PM 28.4 °F 19.1 °F 21.2 °F 74% 30.25 in 10.0 mi North 10.4 mph - N/A   Overcast